This is the latest recevied weather packets stored in our database for station/object EA2RCU-15. If no packets are shown the sender has not sent any weather packets the latest 1 day(s).
| Time | Temp. | Humidity | Pressure | Rain* | Wind** | Luminosity | Snow |
|---|---|---|---|---|---|---|---|
| 1778099706 | 11.67° C | 78% | 997 hPa | 0 mm | - | - | - |
| 1778098505 | 12.22° C | 75% | 996 hPa | 0 mm | - | - | - |
| 1778098206 | 12.22° C | 75% | 996 hPa | 0 mm | - | - | - |
| 1778097306 | 12.78° C | 75% | 996 hPa | 0 mm | - | - | - |
| 1778097005 | 12.78° C | 74% | 996 hPa | 0 mm | - | - | - |
| 1778096706 | 12.78° C | 74% | 996 hPa | 0 mm | - | - | - |
| 1778096105 | 13.33° C | 71% | 996 hPa | 0 mm | - | - | - |
| 1778094605 | 14.44° C | 66% | 996 hPa | 0 mm | - | - | - |
| 1778094306 | 14.44° C | 65% | 996 hPa | 0 mm | - | - | - |
| 1778093705 | 15° C | 59% | 996 hPa | 0 mm | - | - | - |
| 1778093105 | 16.11° C | 54% | 996 hPa | 0 mm | - | - | - |
| 1778091905 | 18.89° C | 40% | 996 hPa | 0 mm | - | - | - |
| 1778091005 | 23.89° C | 31% | 996 hPa | 0 mm | - | - | - |
| 1778090706 | 24.44° C | 30% | 996 hPa | 0 mm | - | - | - |
| 1778089505 | 25.56° C | 29% | 995 hPa | 0 mm | - | - | - |
| 1778088605 | 22.78° C | 35% | 996 hPa | 0 mm | - | - | - |
| 1778088305 | 22.22° C | 34% | 996 hPa | 0 mm | - | - | - |
| 1778087705 | 25.56° C | 26% | 996 hPa | 0 mm | - | - | - |
| 1778087105 | 27.22° C | 23% | 996 hPa | 0 mm | - | - | - |
| 1778083205 | 15.56° C | 67% | 996 hPa | 0 mm | - | - | - |
| 1778082905 | 15.56° C | 66% | 996 hPa | 0 mm | - | - | - |
| 1778081105 | 17.22° C | 60% | 997 hPa | 0 mm | - | - | - |
| 1778080805 | 17.22° C | 61% | 997 hPa | 0 mm | - | - | - |
| 1778079305 | 16.11° C | 64% | 997 hPa | 0 mm | - | - | - |
| 1778078405 | 15.56° C | 64% | 997 hPa | 0 mm | - | - | - |
* Rain latest hour (hover to see other rain measurements)
** Current wind speed in m/s (hover to see current wind gust speed)